Location: Austin
(30.3000°N, 97.7500°W)
Time: 11:58:24
(UTC-05:00)

Sakura Rocket - Pass Details

Date: 03 April 2024
Orbit: 475 x 1717 km, 28.7° (Epoch: 22 April)

Event Time Altitude Azimuth Distance (km) Brightness Sun altitude
Exits shadow 05:34:17 41° 173° (S) 859 3.6 -22.3°
Maximum altitude 05:34:36 41° 161° (SSE) 858 3.7 -22.3°
Drops below altitude 10° 05:39:17 10° 91° (E) 2,205 6.9 -21.3°
Sets 05:42:13 0° 85° (E) 3,338 8.2 -20.7°
